459  
ASUS41 KGYX 031910  
RWRGYX  
WEATHER ROUNDUP FOR MAINE AND NEW HAMPSHIRE  
NATIONAL WEATHER SERVICE GRAY ME  
300 PM EDT MON AUG 03 2020  
 
MEZ002-005-006-010-012-015-018-020-021-024-026-027-029-032000-  
MAINE  
 
CITY SKY/WX TMP DP RH WIND PRES REMARKS
 
PORTLAND PTSUNNY 89 62 40 W16 29.89R  
SANFORD MOSUNNY 87 63 44 W16G28 29.92R  
BAR HARBOR MOSUNNY 82 69 64 S17G24 29.84S  
WISCASSET MOSUNNY 87 63 44 W9G18 29.89R  
ROCKLAND SUNNY 85 67 54 SW16G23 29.86R  
FRYEBURG MOSUNNY 85 61 44 W12G18 29.91R  
LEWISTONAUBURN MOSUNNY 84 64 50 SW14G21 29.89R  
AUGUSTA PTSUNNY 86 63 45 W15G24 29.88R  
WATERVILLE MOSUNNY 82 64 54 W9G20 29.85R  
BANGOR PTSUNNY 85 65 51 W12G23 29.83R  
GREENVILLE N/A 75 61 61 VRB6 29.86R  
MILLINOCKET PTSUNNY 85 62 46 W9G22 29.80R  
HOULTON MOSUNNY 83 69 62 SW13G28 29.73S  
PRESQUE ISLE MOSUNNY 82 69 64 W13 29.74S  
FRENCHVILLE PTSUNNY 80 64 58 W14G26 29.73R  
CARIBOU PTSUNNY 82 68 62 W14G22 29.72S  

 
 
NHZ002-005-008-009-011-012-014-032000-  
NEW HAMPSHIRE  
 
CITY SKY/WX TMP DP RH WIND PRES REMARKS
 
ROCHESTER MOSUNNY 87 59 38 VRB6G23 29.93R  
NASHUA PTSUNNY 88 63 43 W14G24 29.96R  
MANCHESTER MOSUNNY 89 60 37 W14G24 29.94R  
CONCORD SUNNY 87 59 38 W15G31 29.95R  
LACONIA CLOUDY 82 62 50 W14G22 29.95R  
PLYMOUTH PTSUNNY 82 61 49 MISG 29.95R  
BERLIN PTSUNNY 78 59 51 VRB7G20 29.95R  
WHITEFIELD CLOUDY 78 58 49 W17G31 29.96R  
JAFFREY MOSUNNY 83 61 47 W9G16 30.02R  
KEENE MOSUNNY 82 61 48 W10G20 30.00R  
LEBANON PTSUNNY 83 61 47 W10 29.97R  
MT WASHINGTON LGT RAIN 52 52 100 W61G70 N/A VSB 0  

 
 
VTZ005-007-008-032000-  
VERMONT  
 
CITY SKY/WX TMP DP RH WIND PRES REMARKS
 
ST JOHNSBURY N/A 77 61 57 MISG 29.95R  
MONTPELIER CLOUDY 74 61 63 NW10G22 30.03R  
BURLINGTON PTSUNNY 77 61 57 NW10 29.99R  

 
 
MAZ007-012-024-CTZ003-RIZ002-NYZ038-NYZ072-032000-  
SOUTHERN NEW ENGLAND AND NY  
 
CITY SKY/WX TMP DP RH WIND PRES REMARKS
 
BOSTON MOSUNNY 92 60 34 SW24G31 29.93S HX 91  
WORCESTER MOSUNNY 85 62 46 W13G25 30.02R  
NANTUCKET MOSUNNY 81 74 79 SW17 30.02R  
PROVIDENCE MOSUNNY 93 62 35 SW17G23 29.97S HX 93  
HARTFORD MOSUNNY 91 61 36 W14G24 29.98R HX 91  
ALBANY PTSUNNY 82 61 48 W14 30.01S  
NEW YORK CITY MOSUNNY 92 60 34 SW13 30.01R HX 91  

 
 
ANZ081-ANZ082-ANZ150-NHZ014-MEZ023>029-032000-  
COASTAL MARINE OBSERVATIONS  
 
STATION/POSITION TIME TEMP WIND PRES WAVE
 
AIR SEA DIR/SP/G HT/PER  
(UTC) (F) (DEG/KT/KT) (MB) (FT/S)  
MOUNT DESERT ROC 1900 200/ 24/ 26 1011.3R  
ISLE OF SHOALS 1800 82 260/ 18/ 20 1012.3R  
JEFFREYS LEDGE 1805 72 N/A 3/ 5  

 
   
............KEY...........
 
 
WCI - WIND CHILL  
TC - TEMPERATURE IN CELSIUS  
VSB - VISIBILITY
IN MILES  
HX - HEAT INDEX  
FAIR- INDICATES FEW OR NO CLOUDS BELOW 12,000 FT, WITH NO  
SIGNIFICANT WEATHER AND/OR S TO VISIBILITY.  
 
 
 
CLICK HERE TO GO TO PREVIOUS BULLETINS.

The Nexlab ME Page
The Nexlab NH Page Main Text Page